Date String (YYYY-MM-DD hh:mm:ss) UTC,Instrument flags,Ambient pressure (hPa),Sample flow (lpm),Bypass flow (lpm),Sample temperature (°C),Ambient temperature (°C),ASC tube jacket temperature (°C),LED temperature (°C),Box temperature (°C),Sample RH (%),Span deviation,Mass concentration (μg/m³),Mass concentration (μg/m³),Mass concentration (μg/m³)
DateTimeUTC,F1_M11,P_M11,Q1_M11,Q2_M11,T1_M11,T2_M11,T3_M11,T4_M11,T5_M11,U1_M11,ZSPAN_M11,X0_M11,X2_M11,X1_M11
2022-06-28 04:00:00,,0834.7,5.00,0.00,29.5,28.3,00.0,38.3,31.4,22.8,0000.0,0008.96,0003.17,0002.22
2022-06-28 04:01:00,,0834.7,4.99,0.00,29.5,28.4,00.0,38.3,31.4,22.6,0000.0,0008.58,0003.19,0002.22
2022-06-28 04:02:00,,0834.7,5.01,0.00,29.5,28.5,00.0,38.3,31.5,22.6,0000.0,0008.45,0003.16,0002.20
2022-06-28 04:03:00,,0834.7,5.00,0.00,29.6,28.5,00.0,38.4,31.5,22.5,0000.0,0008.38,0003.12,0002.18
2022-06-28 04:04:00,,0834.7,5.00,0.00,29.6,28.5,00.0,38.4,31.5,22.4,0000.0,0007.79,0003.12,0002.16
2022-06-28 04:05:00,,0834.7,4.99,0.00,29.6,28.6,00.0,38.4,31.5,22.4,0000.0,0007.03,0003.10,0002.16
2022-06-28 04:06:00,,0834.7,5.00,0.00,29.6,28.6,00.0,38.4,31.6,22.2,0000.0,0006.37,0003.13,0002.14
2022-06-28 04:07:00,,0834.7,5.00,0.00,29.6,28.7,00.0,38.4,31.6,22.2,0000.0,0005.44,0003.11,0002.13
2022-06-28 04:08:00,,0834.7,5.00,0.00,29.7,28.7,00.0,38.4,31.6,22.1,0000.0,0005.22,0003.03,0002.11
2022-06-28 04:09:00,,0834.7,4.99,0.00,29.7,28.2,00.0,38.4,31.5,22.0,0000.0,0005.10,0002.98,0002.10
2022-06-28 04:10:00,,0834.7,5.00,0.00,29.6,27.5,00.0,38.3,31.3,21.9,0000.0,0004.93,0002.96,0002.11
2022-06-28 04:11:00,,0834.7,5.00,0.00,29.5,27.3,00.0,38.3,31.2,22.1,0000.0,0004.89,0002.93,0002.13
2022-06-28 04:12:00,,0834.7,5.00,0.00,29.4,27.3,00.0,38.3,31.1,22.1,0000.0,0005.28,0002.82,0002.14
2022-06-28 04:13:00,,0834.7,5.00,0.00,29.4,27.4,00.0,38.3,31.1,22.2,0000.0,0006.13,0002.75,0002.14
2022-06-28 04:14:00,,0834.7,5.01,0.00,29.4,27.5,00.0,38.3,31.1,22.3,0000.0,0006.20,0002.79,0002.15
2022-06-28 04:15:00,,0834.6,5.00,0.00,29.4,27.6,00.0,38.2,31.2,22.3,0000.0,0006.19,0002.80,0002.15
2022-06-28 04:16:00,,0834.6,5.01,0.00,29.4,27.7,00.0,38.2,31.2,22.5,0000.0,0006.04,0002.76,0002.16
2022-06-28 04:17:00,,0834.6,4.99,0.00,29.4,27.9,00.0,38.2,31.2,22.3,0000.0,0005.79,0002.69,0002.19
2022-06-28 04:18:00,,0834.5,5.01,0.00,29.4,28.0,00.0,38.2,31.3,22.3,0000.0,0005.66,0002.68,0002.20
2022-06-28 04:19:00,,0834.4,5.00,0.00,29.4,28.1,00.0,38.2,31.3,22.1,0000.0,0005.82,0002.72,0002.22
2022-06-28 04:20:00,,0834.4,5.00,0.00,29.4,28.1,00.0,38.2,31.3,22.2,0000.0,0006.16,0002.73,0002.24
2022-06-28 04:21:00,,0834.4,5.00,0.00,29.4,28.2,00.0,38.3,31.3,22.1,0000.0,0006.40,0002.71,0002.24
2022-06-28 04:22:00,,0834.4,5.00,0.00,29.4,28.3,00.0,38.3,31.3,22.1,0000.0,0006.39,0002.74,0002.23
2022-06-28 04:23:00,,0834.4,5.00,0.00,29.5,28.3,00.0,38.3,31.4,22.0,0000.0,0005.95,0002.77,0002.23
2022-06-28 04:24:00,,0834.4,5.01,0.00,29.5,28.4,00.0,38.3,31.4,21.9,0000.0,0004.67,0002.76,0002.23
2022-06-28 04:25:00,,0834.4,5.00,0.00,29.5,28.4,00.0,38.3,31.4,21.9,0000.0,0004.64,0002.73,0002.22
2022-06-28 04:26:00,,0834.4,5.00,0.00,29.5,28.5,00.0,38.3,31.4,21.9,0000.0,0004.74,0002.75,0002.23
2022-06-28 04:27:00,,0834.3,4.99,0.00,29.5,28.5,00.0,38.3,31.5,22.0,0000.0,0004.93,0002.78,0002.23
2022-06-28 04:28:00,,0834.3,5.00,0.00,29.6,28.6,00.0,38.3,31.5,21.9,0000.0,0005.35,0002.80,0002.23
2022-06-28 04:29:00,,0834.3,5.00,0.00,29.6,28.6,00.0,38.4,31.5,22.0,0000.0,0006.51,0002.82,0002.23
2022-06-28 04:30:00,,0834.4,5.00,0.00,29.6,28.6,00.0,38.4,31.5,21.9,0000.0,0006.87,0002.81,0002.25
2022-06-28 04:31:00,,0834.4,5.01,0.00,29.6,28.6,00.0,38.4,31.6,22.0,0000.0,0006.66,0002.83,0002.26
2022-06-28 04:32:00,,0834.4,5.01,0.00,29.6,28.7,00.0,38.4,31.6,22.1,0000.0,0006.57,0002.86,0002.28
2022-06-28 04:33:00,,0834.4,5.00,0.00,29.7,28.7,00.0,38.4,31.6,22.0,0000.0,0006.98,0002.84,0002.30
2022-06-28 04:34:00,,0834.4,4.99,0.00,29.7,28.7,00.0,38.4,31.6,21.9,0000.0,0007.34,0002.87,0002.32
2022-06-28 04:35:00,,0834.4,5.01,0.00,29.7,28.3,00.0,38.4,31.5,21.7,0000.0,0007.50,0002.92,0002.34
2022-06-28 04:36:00,,0834.4,4.99,0.00,29.6,27.5,00.0,38.3,31.3,21.8,0000.0,0007.56,0002.95,0002.38
2022-06-28 04:37:00,,0834.4,4.99,0.00,29.5,27.2,00.0,38.3,31.2,21.9,0000.0,0007.57,0002.98,0002.40
2022-06-28 04:38:00,,0834.5,5.00,0.00,29.5,27.2,00.0,38.3,31.1,22.0,0000.0,0007.53,0003.02,0002.42
2022-06-28 04:39:00,,0834.5,5.01,0.00,29.4,27.3,00.0,38.3,31.1,22.2,0000.0,0007.28,0003.02,0002.43
2022-06-28 04:40:00,,0834.6,4.99,0.00,29.4,27.4,00.0,38.3,31.1,22.2,0000.0,0006.20,0003.04,0002.44
2022-06-28 04:41:00,,0834.6,5.01,0.00,29.4,27.5,00.0,38.2,31.1,22.2,0000.0,0005.78,0003.03,0002.43
2022-06-28 04:42:00,,0834.6,4.99,0.00,29.4,27.7,00.0,38.2,31.2,22.2,0000.0,0005.87,0003.05,0002.43
2022-06-28 04:43:00,,0834.6,4.99,0.00,29.4,27.8,00.0,38.2,31.2,22.0,0000.0,0005.75,0003.06,0002.43
2022-06-28 04:44:00,,0834.5,4.99,0.00,29.4,27.9,00.0,38.2,31.2,22.0,0000.0,0005.32,0003.04,0002.42
2022-06-28 04:45:00,,0834.6,5.00,0.00,29.4,28.0,00.0,38.2,31.2,22.0,0000.0,0005.83,0003.03,0002.41
2022-06-28 04:46:00,,0834.6,5.00,0.00,29.4,28.1,00.0,38.2,31.3,21.9,0000.0,0006.10,0003.09,0002.41
2022-06-28 04:47:00,,0834.5,5.00,0.00,29.4,28.2,00.0,38.2,31.3,21.9,0000.0,0006.14,0003.14,0002.41
2022-06-28 04:48:00,,0834.5,5.00,0.00,29.4,28.2,00.0,38.2,31.3,21.9,0000.0,0006.25,0003.14,0002.39
2022-06-28 04:49:00,,0834.5,4.99,0.00,29.4,28.3,00.0,38.2,31.3,21.8,0000.0,0006.31,0003.13,0002.39
2022-06-28 04:50:00,,0834.5,5.01,0.00,29.5,28.3,00.0,38.3,31.4,21.9,0000.0,0006.60,0003.14,0002.41
2022-06-28 04:51:00,,0834.5,5.00,0.00,29.5,28.4,00.0,38.3,31.4,21.8,0000.0,0007.28,0003.15,0002.40
2022-06-28 04:52:00,,0834.5,4.99,0.00,29.5,28.4,00.0,38.3,31.4,21.9,0000.0,0007.86,0003.17,0002.41
2022-06-28 04:53:00,,0834.4,5.01,0.00,29.5,28.5,00.0,38.3,31.4,21.8,0000.0,0008.22,0003.18,0002.41
2022-06-28 04:54:00,,0834.5,5.01,0.00,29.5,28.5,00.0,38.3,31.4,21.9,0000.0,0008.27,0003.17,0002.42
2022-06-28 04:55:00,,0834.5,5.01,0.00,29.6,28.5,00.0,38.3,31.5,21.9,0000.0,0008.31,0003.19,0002.42
2022-06-28 04:56:00,,0834.5,5.00,0.00,29.6,28.6,00.0,38.3,31.5,21.8,0000.0,0007.84,0003.22,0002.44
2022-06-28 04:57:00,,0834.5,4.99,0.00,29.6,28.6,00.0,38.4,31.5,21.7,0000.0,0007.86,0003.21,0002.44
2022-06-28 04:58:00,,0834.5,4.99,0.00,29.6,28.6,00.0,38.4,31.5,21.6,0000.0,0007.88,0003.19,0002.45
2022-06-28 04:59:00,,0834.5,4.99,0.00,29.6,28.7,00.0,38.4,31.6,21.4,0000.0,0007.80,0003.18,0002.46
